Location: Krzykow
(51.1188°N, 17.7112°E)
Time: 09:34:44
(UTC+01:00)

ISS - Visible Passes

Search period start: 14 December 2018 00:00
Search period end: 24 December 2018 00:00
Orbit: 401 x 408 km, 51.6° (Epoch: 15 December)

Date Brightness Start Highest point End Pass type
(mag) Time Alt. Az. Time Alt. Az. Time Alt. Az.
14 Dec -0.2 17:16:45 10° SW 17:17:27 10° SW 17:18:07 10° SSW visible
15 Dec -0.7 16:23:22 10° W 16:25:32 17° SW 16:27:44 10° S visible
22 Dec -0.5 07:06:09 10° S 07:08:06 15° SE 07:10:04 10° ESE visible
